Regional Weather Roundup
Issued by NWS

Home | Current Version | Previous Version | Text Only | Print | Product List | Glossary On
Versions: 1 2 3 4 5 6 7 8 9 10 11 12 13 14 15 16 17 18 19 20 21 22 23 24 25 26 27 28 29 30 31 32 33 34 35 36 37 38 39 40 41 42 43 44 45 46 47 48 49 50
000
ASUS43 KLSX 292207
RWRMO

WEATHER SUMMARY FOR MISSOURI
NATIONAL WEATHER SERVICE SPRINGFIELD MO
500 PM CDT FRI MAY 29 2015

NOTE: "FAIR" INDICATES FEW OR NO CLOUDS BELOW 12,000 FEET WITH NO
       SIGNIFICANT WEATHER AND/OR OBSTRUCTIONS TO VISIBILITY.
       CURRENT SKY AND/OR WEATHER CONDITIONS ARE NOT AVAILABLE FOR
       CHILLICOTHE AND FARMINGTON.

MOZ001>031-035>038-043-044-053-054-292300-
...NORTHERN AND WESTERN MISSOURI...

CITY           SKY/WX    TMP DP  RH WIND       PRES   REMARKS
KANSAS CTY INT CLOUDY    69  67  93 S8        29.96S
KANSAS C DTWN  LGT RAIN  70  65  84 W3        29.96R
LEE`S SUMMIT   LGT RAIN  68  66  93 S7        29.96F
ST JOSEPH      CLOUDY    71  66  84 SW12      29.94F
CHILLICOTHE      N/A     71  66  84 S8        29.95F
KIRKSVILLE     PTSUNNY   74  65  73 W3        29.93F

$$
MOZ066>068-077>081-088>096-101>105-292300-
...SOUTHWEST MISSOURI...

CITY           SKY/WX    TMP DP  RH WIND       PRES   REMARKS
SPRINGFIELD    LGT RAIN  73  69  87 NE10      29.94F
JOPLIN         TSTM      65  64  97 NW17      30.00R FOG

$$
MOZ032>034-039>042-045>050-055>058-069>072-292300-
...CENTRAL MISSOURI...

CITY           SKY/WX    TMP DP  RH WIND       PRES   REMARKS
COLUMBIA       PTSUNNY   75  66  73 W3        29.98F
JEFFERSON CITY PTSUNNY   75  64  68 NW7       29.97F
ROLLA          PTSUNNY   74  66  76 CALM      29.98F
SEDALIA        LGT RAIN  72  67  84 S3        29.99F
OSAGE BEACH    CLOUDY    73  63  68 E5        29.98F

$$
MOZ051-052-059>065-292300-
...EAST CENTRAL MISSOURI...

CITY           SKY/WX    TMP DP  RH WIND       PRES   REMARKS
ST LOUIS INTL  PTSUNNY   81  67  62 SW9       29.97F
SPIRIT OF STL  PTSUNNY   79  70  74 SW5       29.95F
ST CHARLES     PTSUNNY   82  68  62 W7        29.95F

$$
MOZ072>076-082>087-097>100-106>115-292300-
...SOUTH CENTRAL AND SOUTHEAST MISSOURI...

CITY           SKY/WX    TMP DP  RH WIND       PRES   REMARKS
CAPE GIRARDEAU MOSUNNY   84  68  58 S12       29.97F
FARMINGTON     PTSUNNY   72  66  83 N3        30.05S THUNDER
POPLAR BLUFF   MOSUNNY   86  68  54 SE10      29.95F
WEST PLAINS    PTSUNNY   80  70  71 NE7       29.97F

$$


USA.gov is the U.S. government's official web portal to all federal, state and local government web resources and services.